[[{"header":{"parameterUnit":"m.s-1","parameterCategory":1,"la1":30.2991,"la2":30.254,"lo1":-89.0895,"lo2":-89.0444,"dy":0.0017,"dx":0.0017,"nx":28,"ny":28,"refTime":"2023-08-21T21:00:00:Z","depth":0,"parameterNumber":2,"parameterNumberName":"U-component_of_WINDS"},"data":[0,0,0,0,0,0,0,0,0,0,0,0,0,0,0,0,0,0,0,0,0,0,0,0,0,0,0,0,0,0,0,0,0,0,0,0,0,0,0,0,0,0,0,0,0,0,0,0,0,0,0,0,0,0,0,0,0,0,-7.2388,-7.2388,0,-7.239,-7.239,-7.239,-7.2269,-7.2266,-7.2263,-7.226,-7.2262,-7.2264,-7.2267,0,0,0,0,0,0,0,0,0,0,0,0,0,-7.2281,-7.2284,-7.2388,-7.2388,-7.2388,-7.239,-7.239,-7.239,-7.227,-7.2266,-7.2262,-7.2258,-7.2261,-7.2264,-7.2268,0,0,0,0,0,0,0,0,0,0,0,0,0,-7.231,-7.2285,-7.2388,-7.2328,-7.2323,-7.239,-7.239,-7.239,-7.2271,-7.2266,-7.2261,-7.2256,-7.2259,-7.2264,-7.2268,-7.2393,0,0,-7.2282,-7.2284,0,0,0,0,0,0,0,0,-7.2309,-7.2314,-7.2337,-7.2332,-7.2327,-7.2324,-7.2353,-7.2391,-7.2272,-7.229,-7.226,-7.2254,-7.2286,-7.2288,-7.2299,-7.2393,-7.2393,-7.2283,-7.2285,-7.2287,-7.2289,0,0,0,0,0,0,0,-7.2307,-7.2313,-7.2389,-7.2338,-7.2331,-7.2302,-7.2301,-7.236,-7.2315,-7.2288,-7.228,-7.2282,-7.2283,-7.2295,-7.2298,-7.2393,-7.2282,-7.2286,-7.2289,-7.2291,-7.259,-7.2595,0,0,0,0,0,0,-7.2313,-7.2312,-7.2389,-7.2389,-7.2306,-7.2308,-7.2306,-7.233,-7.2314,-7.2307,-7.2286,-7.2276,-7.229,-7.2293,-7.2298,-7.2443,-7.2287,-7.2291,-7.2294,-7.2585,-7.2591,-7.2597,0,0,0,0,0,0,-7.2311,-7.2321,-7.2389,-7.2348,-7.2355,-7.2315,-7.2342,-7.2333,-7.2345,-7.2312,-7.2304,-7.2307,-7.2286,-7.2292,-7.237,-7.2441,-7.2294,-7.2298,-7.2579,-7.2587,-7.2594,-7.2734,0,0,0,0,0,0,-7.2308,-7.2321,-7.2367,-7.235,-7.2357,-7.2461,-7.2347,-7.2336,-7.2353,-7.234,-7.233,-7.2323,-7.2283,-7.2364,-7.2375,-7.2445,-7.2301,-7.2572,-7.2582,-7.2592,-7.2723,-7.2745,-7.2765,0,0,0,0,0,-7.2305,-7.2406,-7.237,-7.238,-7.2414,-7.2465,-7.2469,-7.242,-7.2359,-7.2406,-7.2385,-7.2324,-7.2433,-7.2373,-7.2384,-7.2457,-7.2567,-7.2579,-7.2591,-7.2713,-7.2741,-7.2764,0,0,0,0,0,0,-7.2431,-7.2402,-7.2362,-7.246,-7.2466,-7.2444,-7.2501,-7.2451,-7.2474,-7.2461,-7.24,-7.2399,-7.2488,-7.248,-7.2415,-7.2577,-7.2489,-7.2504,-7.2578,-7.2604,-7.2625,-7.2624,-7.2305,0,0,0,0,0,-7.247,-7.2514,-7.2486,-7.2576,-7.2581,-7.2542,-7.2562,-7.2524,-7.2527,-7.2529,-7.2514,-7.252,-7.2555,-7.258,-7.261,-7.2722,-7.2718,-7.2777,-7.2799,-7.2816,-7.2829,-7.2888,-7.2914,-7.2635,-7.2635,-7.2635,0,0,-7.2551,-7.2541,-7.2572,-7.2601,-7.2601,-7.2648,-7.2544,-7.2597,-7.2632,-7.2537,-7.261,-7.26,-7.2603,-7.2699,-7.274,-7.2695,-7.2906,-7.2831,-7.2845,-7.2848,-7.2903,-7.293,-7.2953,-7.2643,-7.2642,-7.2641,0,0,-7.2723,-7.272,-7.2794,-7.2797,-7.2799,-7.2773,-7.2791,-7.2778,-7.2768,-7.2841,-7.2771,-7.2812,-7.2874,-7.2879,-7.289,-7.3068,-7.3012,-7.308,-7.3189,-7.3248,-7.327,-7.3289,-7.3353,-7.3376,-7.3093,-7.3093,-7.3094,0,-7.2823,-7.2891,-7.2839,-7.2898,-7.2913,-7.2831,-7.2907,-7.2912,-7.2924,-7.2937,-7.2887,-7.2965,-7.2961,-7.3057,-7.3101,-7.3113,-7.3132,-7.3079,-7.3271,-7.329,-7.3307,-7.3367,-7.3391,-7.3102,-7.3101,-7.31,-7.3099,0,-7.3014,-7.3063,-7.3123,-7.3137,-7.316,-7.3227,-7.3186,-7.3215,-7.3177,-7.3156,-7.3233,-7.3226,-7.3254,-7.3275,-7.3238,-7.3367,-7.3339,-7.3282,-7.3191,-7.3343,-7.3398,-7.342,-7.3113,-7.311,-7.3108,-7.3106,0,0,-7.3261,-7.3249,-7.3272,-7.3278,-7.3276,-7.3313,-7.3377,-7.3406,-7.3432,-7.3445,-7.3497,-7.3554,-7.3501,-7.3513,-7.3477,-7.3529,-7.3671,-7.3464,-7.3463,-7.3502,-7.3814,-7.3856,-7.3884,-7.3635,-7.3639,-7.3643,-7.3813,0,-7.3427,-7.3536,-7.3493,-7.3605,-7.365,-7.3575,-7.3631,-7.3637,-7.362,-7.3656,-7.3638,-7.3679,-7.3606,-7.3613,-7.3661,-7.3643,-7.3732,-7.3631,-7.3683,-7.3686,-7.3683,-7.3912,-7.3957,-7.4118,-7.3835,-7.3838,-7.3841,0,-7.3634,-7.3656,-7.3773,-7.3765,-7.3782,-7.3834,-7.3858,-7.3893,-7.3899,-7.3883,-7.39,-7.3852,-7.3916,-7.3829,-7.3916,-7.3848,-7.3867,-7.3862,-7.3867,-7.3869,-7.3771,-7.3919,-7.4168,-7.4192,-7.3874,-7.3872,-7.3869,0,-7.3802,-7.3861,-7.3939,-7.3947,-7.394,-7.3978,-7.3977,-7.3978,-7.3999,-7.402,-7.4033,-7.4063,-7.4078,-7.4102,-7.4065,-7.4004,-7.4158,-7.4067,-7.4146,-7.4148,-7.418,-7.4178,-7.4434,-7.4196,-7.4195,-7.4195,-7.4194,0,-7.3991,-7.4065,-7.4015,-7.4062,-7.4144,-7.4096,-7.4178,-7.4169,-7.4171,-7.4216,-7.4154,-7.4198,-7.4147,-7.4186,-7.4158,-7.4235,-7.4242,-7.4232,-7.4223,-7.4236,-7.4238,-7.4247,-7.4234,-7.4201,-7.42,-7.4198,-7.4197,0,-7.4191,-7.416,-7.424,-7.4228,-7.4227,-7.4288,-7.4278,-7.4322,-7.4303,-7.4361,-7.4372,-7.4341,-7.4385,-7.4351,-7.4393,-7.4374,-7.4476,-7.4452,-7.4474,-7.4467,-7.4548,-7.4541,-7.4818,-7.4852,-7.4593,-7.4596,-7.4598,0,-7.4312,-7.4368,-7.4363,-7.4389,-7.4392,-7.4435,-7.4457,-7.4412,-7.4437,-7.445,-7.4493,-7.4532,-7.4559,-7.4633,-7.4615,-7.4648,-7.4623,-7.4719,-7.4628,-7.464,-7.4624,-7.4621,-7.4626,-7.4736,-7.4739,-7.4742,-7.4744,0,-7.4531,-7.4514,-7.4547,-7.4577,-7.4604,-7.4625,-7.4641,-7.4666,-7.4621,-7.4653,-7.4697,-7.4719,-7.4764,-7.4803,-7.4831,-7.483,-7.478,-7.4773,-7.4793,-7.4807,-7.4817,-7.4812,-7.4523,-7.4766,-7.4764,-7.4762,-7.4761,-7.476,-7.4694,-7.4741,-7.4745,-7.4785,-7.4793,-7.481,-7.4852,-7.4839,-7.4875,-7.4908,-7.488,-7.4934,-7.494,-7.4972,-7.4978,-7.5019,-7.498,-7.5009,-7.5016,-7.5024,-7.5035,-7.4812,-7.5024,-7.5024,-7.5023,-7.5022,-7.5022,0,-7.4909,-7.4909,-7.4947,-7.4972,-7.5004,-7.4956,-7.4972,-7.5002,-7.505,-7.5061,-7.5091,-7.5143,-7.5181,-7.5168,-7.5203,-7.5239,-7.5217,-7.5249,-7.5245,-7.5246,-7.5068,-7.5047,-7.5266,-7.5266,-7.5266,-7.5266,-7.5266,-7.5266,-7.5024,-7.5101,-7.5085,-7.5166,-7.5165,-7.5218,-7.5231,-7.5247,-7.5255,-7.5317,-7.5349,-7.534,-7.5342,-7.5377,-7.5411,-7.5406,-7.5421,-7.5462,-7.5449,-7.5282,-7.5258,-7.5235,-7.5215,-7.5466,-7.5466,-7.5622,-7.5624,-7.5625]},{"header":{"parameterUnit":"m.s-1","parameterCategory":1,"la1":30.2991,"la2":30.254,"lo1":-89.0895,"lo2":-89.0444,"dy":0.0017,"dx":0.0017,"nx":28,"ny":28,"refTime":"2023-08-21T21:00:00:Z","depth":0,"parameterNumber":3,"parameterNumberName":"V-component_of_WINDS"},"data":[0,0,0,0,0,0,0,0,0,0,0,0,0,0,0,0,0,0,0,0,0,0,0,0,0,0,0,0,0,0,0,0,0,0,0,0,0,0,0,0,0,0,0,0,0,0,0,0,0,0,0,0,0,0,0,0,0,0,1.5034,1.5034,0,1.5108,1.5109,1.5109,1.5215,1.5217,1.5219,1.5221,1.529,1.529,1.529,0,0,0,0,0,0,0,0,0,0,0,0,0,1.4979,1.498,1.5034,1.5035,1.5035,1.5108,1.5109,1.511,1.5215,1.5217,1.522,1.5222,1.529,1.529,1.529,0,0,0,0,0,0,0,0,0,0,0,0,0,1.5023,1.498,1.5033,1.5097,1.5103,1.5107,1.5109,1.511,1.5215,1.5217,1.522,1.5223,1.529,1.529,1.529,1.5236,0,0,1.5291,1.5291,0,0,0,0,0,0,0,0,1.502,1.5025,1.5087,1.5093,1.51,1.5155,1.5115,1.5152,1.5214,1.5172,1.5221,1.5224,1.5242,1.5247,1.5254,1.5239,1.5242,1.5291,1.5291,1.5291,1.5291,0,0,0,0,0,0,0,1.5017,1.5022,1.5063,1.5087,1.5095,1.512,1.513,1.5122,1.5191,1.5176,1.5184,1.5192,1.5247,1.5254,1.5257,1.5243,1.5291,1.5291,1.5291,1.5291,1.5188,1.5185,0,0,0,0,0,0,1.5005,1.5019,1.506,1.5065,1.5066,1.5119,1.513,1.5135,1.5191,1.5202,1.5189,1.5196,1.5252,1.5256,1.5259,1.52,1.5291,1.5291,1.5291,1.5191,1.5187,1.5184,0,0,0,0,0,0,1.5004,1.5008,1.5057,1.5044,1.5053,1.5117,1.5122,1.5135,1.5142,1.5201,1.5213,1.5184,1.5255,1.5259,1.5242,1.5203,1.5291,1.5291,1.5194,1.519,1.5186,1.5079,0,0,0,0,0,0,1.5002,1.5007,1.4988,1.5043,1.5053,1.5039,1.512,1.5134,1.5143,1.5153,1.52,1.521,1.5257,1.5241,1.5242,1.5205,1.5291,1.5198,1.5192,1.5187,1.5086,1.5071,1.5059,0,0,0,0,0,1.5,1.4953,1.4986,1.499,1.503,1.5037,1.5042,1.5099,1.5139,1.512,1.5158,1.5209,1.5208,1.5238,1.524,1.5203,1.52,1.5194,1.5188,1.5092,1.5074,1.5059,0,0,0,0,0,0,1.4888,1.4961,1.4999,1.4969,1.4996,1.5055,1.5031,1.5078,1.5093,1.5101,1.5169,1.5179,1.5152,1.5177,1.5209,1.5154,1.5212,1.5206,1.5139,1.5122,1.5109,1.5102,1.5292,0,0,0,0,0,1.486,1.4861,1.4925,1.4892,1.4904,1.4965,1.497,1.5013,1.5042,1.5054,1.5091,1.5116,1.5122,1.5124,1.5133,1.5091,1.5102,1.5067,1.5053,1.5042,1.5035,1.5015,1.4999,1.5163,1.5163,1.5163,0,0,1.4802,1.4842,1.4838,1.4871,1.4897,1.4895,1.4974,1.4968,1.4967,1.5052,1.5038,1.5066,1.5099,1.507,1.5058,1.5089,1.4993,1.5034,1.5024,1.5023,1.5006,1.4991,1.4977,1.5159,1.516,1.516,0,0,1.4695,1.4726,1.4703,1.4728,1.4768,1.481,1.4804,1.4857,1.4879,1.4867,1.4931,1.493,1.4939,1.496,1.4972,1.4877,1.4923,1.4878,1.4805,1.4785,1.4772,1.4761,1.4725,1.4712,1.4871,1.487,1.487,0,1.4616,1.4618,1.4684,1.4675,1.4687,1.4768,1.4744,1.4765,1.4804,1.481,1.4845,1.4859,1.4887,1.4863,1.484,1.4848,1.4842,1.4871,1.4769,1.4758,1.4749,1.4716,1.4702,1.4865,1.4865,1.4866,1.4866,0,1.4519,1.4519,1.4496,1.4534,1.4545,1.4528,1.459,1.4592,1.4635,1.4672,1.4659,1.4696,1.4714,1.4712,1.4752,1.4694,1.4712,1.4757,1.4816,1.4726,1.4696,1.4684,1.4856,1.4858,1.486,1.4861,0,0,1.4339,1.4419,1.4408,1.4428,1.4479,1.4479,1.4467,1.4487,1.4487,1.4513,1.4502,1.451,1.4553,1.4566,1.4609,1.4592,1.4513,1.4639,1.4641,1.4612,1.445,1.4415,1.4399,1.4546,1.4544,1.4542,1.4447,0,1.424,1.4225,1.4285,1.4253,1.4254,1.4333,1.4322,1.4351,1.4387,1.4392,1.4431,1.4434,1.4491,1.45,1.4486,1.4525,1.4481,1.4533,1.4534,1.4534,1.4521,1.4384,1.4345,1.4254,1.4436,1.4434,1.4433,0,1.4121,1.4144,1.4112,1.4168,1.417,1.4159,1.4183,1.4188,1.4223,1.425,1.4267,1.4319,1.4309,1.4368,1.4355,1.439,1.4394,1.4414,1.4412,1.4411,1.4475,1.4377,1.4226,1.4212,1.4415,1.4417,1.4418,0,1.3991,1.4014,1.3998,1.4012,1.4077,1.4067,1.4093,1.4132,1.4141,1.4162,1.4168,1.4187,1.4196,1.4209,1.4264,1.4302,1.4243,1.4307,1.4264,1.4262,1.4245,1.4245,1.409,1.4252,1.4252,1.4252,1.4253,0,1.3873,1.385,1.3941,1.393,1.3908,1.3978,1.3953,1.3987,1.4021,1.4018,1.4087,1.4082,1.4157,1.416,1.4203,1.4185,1.4189,1.4209,1.422,1.4202,1.4199,1.4203,1.421,1.4249,1.425,1.425,1.4251,0,1.3722,1.3782,1.377,1.3834,1.3849,1.3829,1.3883,1.3876,1.3918,1.3913,1.3916,1.398,1.3988,1.4045,1.4065,1.4094,1.4059,1.4083,1.4047,1.4054,1.4007,1.4009,1.3847,1.3829,1.4004,1.4002,1.4001,0,1.3641,1.3626,1.3689,1.3693,1.3717,1.3723,1.3733,1.3803,1.381,1.3852,1.3839,1.3853,1.3867,1.3876,1.3923,1.3938,1.3962,1.3905,1.3965,1.3947,1.3959,1.3959,1.3957,1.3891,1.3888,1.3887,1.3885,0,1.349,1.3522,1.3535,1.356,1.3571,1.3593,1.3619,1.3618,1.3695,1.37,1.3711,1.3722,1.3744,1.3756,1.3781,1.3806,1.3857,1.3867,1.3857,1.3836,1.3815,1.3824,1.4009,1.3869,1.3871,1.3872,1.3873,1.3873,1.3371,1.3361,1.3405,1.3418,1.3446,1.3469,1.3466,1.3509,1.352,1.3545,1.3586,1.359,1.3627,1.3666,1.3687,1.369,1.372,1.3706,1.3703,1.3698,1.3687,1.3817,1.3695,1.3696,1.3696,1.3696,1.3697,0,1.3222,1.3255,1.3267,1.3303,1.3313,1.3366,1.3398,1.3402,1.3406,1.3438,1.3452,1.3464,1.3477,1.3527,1.3545,1.3538,1.3561,1.354,1.3539,1.3544,1.366,1.3666,1.352,1.352,1.352,1.352,1.352,1.352,1.3146,1.3133,1.317,1.3172,1.3205,1.3212,1.3225,1.3247,1.3273,1.3284,1.3296,1.333,1.3369,1.3391,1.3405,1.3419,1.3422,1.3391,1.3413,1.3519,1.3536,1.3552,1.3558,1.3392,1.3392,1.3297,1.3296,1.3295]}]]